Weather History for CWZG - May, 2013

Change the Weather History Date:

Wednesday, May 29, 2013

  Actual Average Record
Temperature  
Mean Temperature 46 °F -  
Max Temperature 58 °F - - ()
Min Temperature 34 °F - - ()
Degree Days  
Heating Degree Days 19    
Moisture  
Dew Point 39 °F    
Average Humidity 78    
Maximum Humidity 100    
Minimum Humidity 43    
Precipitation  
Precipitation 0.05 in - - ()
Sea Level Pressure  
Sea Level Pressure 29.74 in    
Wind  
Wind Speed 2 mph ()    
Max Wind Speed 8 mph    
Max Gust Speed -    
T = Trace of Precipitation, MM = Missing Value Source: Averaged Metar Reports

Daily Weather History Graph

Daily Weather History Graph

Search for Another Location

Airport or City:

Trip Planner

Search our weather history database for the weather conditions in past years. The results will help you decide how hot, cold, wet, or windy it might be!

Date:

Astronomy

May. 29, 2013 Rise Set
Actual Time 5:34 AM MDT 9:45 PM MDT
Civil Twilight 4:50 AM MDT 10:30 PM MDT
Nautical Twilight 3:46 AM MDT 11:34 PM MDT
Astronomical Twilight 2:12 AM MDT 1:07 AM MDT
Moon 12:53 AM MDT (5/29) 10:58 AM MDT (5/29)
Length of Visible Light 17h 39m
Length of Day
16h 11m
Waning Gibbous, 72% of the Moon is Illuminated
May 29
Waning Gibbous
May 31
Last Quarter
Jun 8
New
Jun 16
First Quarter
Jun 23
Full

Hourly Weather History & Observations

Time (MDT) Temp. Windchill Dew Point Humidity Pressure Visibility Wind Dir Wind Speed Gust Speed Precip Events Conditions
12:00 AM 41.5 °F - 40.1 °F 95% 29.79 in - NNW 2.3 mph - N/A   Unknown
1:00 AM 39.0 °F - 37.6 °F 95% 29.79 in - NNW 1.2 mph - N/A   Unknown
2:00 AM 37.4 °F - 36.9 °F 98% 29.79 in - North 1.2 mph - N/A   Unknown
3:00 AM 36.0 °F - 35.8 °F 99% 29.77 in - SW 1.2 mph - N/A   Unknown
4:00 AM 35.2 °F - 35.2 °F 100% 29.77 in - Calm Calm - N/A   Unknown
5:00 AM 34.3 °F - 34.3 °F 100% 29.76 in - Calm Calm - N/A   Unknown
6:00 AM 34.2 °F - 34.2 °F 100% 29.76 in - ENE 1.2 mph - N/A   Unknown
7:00 AM 37.0 °F - 37.0 °F 100% 29.76 in - NE 2.3 mph - N/A   Unknown
8:00 AM 43.2 °F - 40.3 °F 90% 29.75 in - SW 2.3 mph - N/A   Unknown
9:00 AM 46.0 °F - 41.9 °F 85% 29.75 in - WSW 2.3 mph - N/A   Unknown
10:00 AM 49.8 °F - 42.1 °F 75% 29.73 in - NE 3.5 mph - N/A   Unknown
11:00 AM 51.3 °F - 40.6 °F 67% 29.72 in - East 2.3 mph - N/A   Unknown
12:00 PM 52.3 °F - 40.6 °F 64% 29.72 in - ENE 3.5 mph - N/A   Unknown
1:00 PM 54.7 °F - 38.3 °F 54% 29.72 in - NNW 3.5 mph - N/A   Unknown
2:00 PM 55.4 °F - 36.0 °F 48% 29.71 in - SSW 3.5 mph - N/A   Unknown
3:00 PM 58.3 °F - 36.0 °F 43% 29.69 in - NE 1.2 mph - N/A   Unknown
4:00 PM 57.0 °F - 38.3 °F 50% 29.69 in - SSW 5.8 mph - N/A   Unknown
5:00 PM 55.8 °F - 39.7 °F 55% 29.71 in - NE 4.6 mph - N/A   Unknown
6:00 PM 53.8 °F - 40.5 °F 61% 29.71 in - South 4.6 mph - N/A   Unknown
7:00 PM 49.5 °F - 43.0 °F 78% 29.72 in - SSE 5.8 mph - 0.05 in   Unknown
8:00 PM 50.4 °F - 41.5 °F 72% 29.71 in - NE 8.1 mph - N/A   Unknown
9:00 PM 49.1 °F - 41.7 °F 76% 29.72 in - NE 8.1 mph - N/A   Unknown
10:00 PM 47.1 °F - 41.4 °F 80% 29.74 in - ENE 4.6 mph - N/A   Unknown
11:00 PM 46.2 °F 43.3 °F 40.6 °F 81% 29.75 in - NNE 5.8 mph - N/A   Unknown